Погода в Туровке

Россия / Орловская область     52°49′29″N   37°06′07″E
темп.,
°C
ветер,
м/с
пор.,
м/с
влажн.,
%
обл.,
%
осадки,
мм/ч
давл.,
гПа
погр.,
м
28 ноября, вс
вс2800:00+3ю51298100 0.0 1004335
03:00+4ююз51298100 0.0 1004342
06:00+5юз51096100 0.0 1005436
09:00+4ююз379413 0.0 1006208
12:00+5юз478255 0.0 1008341
15:00+5ююз248213 0.0 1008129
18:00+4ююв469599 0.0 1009104
21:00+5ююв5889100 0.0 1009320
29 ноября, пн
пн2900:00+5ююв51091100 0.0 1008399
03:00+4юв51294100 0.0 1007286
06:00+4вюв41097100 0.0 1004223
09:00+5в4999100 2.1 1001235
12:00+5вюв4899100 0.3 999271
15:00+6ююв3999100 0.7 997293
18:00+7юв4109899 0.0 994297
21:00+7вюв61197100 0.6 989356
30 ноября, вт
вт3000:00+8вюв51299100 5.6 982368
03:00+8ю111988100 8.3 9771268
06:00+7юз131890100 8.3 9771260
09:00+1зюз142396100 14.6 9831105
12:00+1зюз132188100 2.3 9871138
15:00+1зюз121881100 2.3 9891091
18:00+1юз101683100 0.0 9911251
21:000юз9168682 0.1 9911123
1 декабря, ср
ср100:00−1зюз81382100 0.1 991981
03:00−2зюз8128695 0.2 992955
06:00−2з8138798 0.1 9911049
09:00−3з71293100 0.6 994949
12:00−3з81292100 1.0 995949
15:00−3з81292100 1.6 996911
18:00−3з71286100 0.3 999793
21:00−4зсз7128698 0.3 1001710
2 декабря, чт
чт200:00−5зсз6118565 0.1 1003664
03:00−6з499033 0.1 1004404
06:00−6юз499395 0.0 1005320
09:00−4ююз41188100 0.0 1005401
12:00−2ю71595100 0.3 1004650
15:000ююз81596100 1.5 1003661
18:00+1юз71596100 0.4 1004570
21:00+1юз61590100 0.4 1005442